Location: Emblem
(62.4273°N, 6.4710°E)
Time: 06:08:56
(UTC+02:00)

Transit 2A - Pass Details

Date: 05 March 2024
Orbit: 596 x 956 km, 66.7° (Epoch: 24 April)

Event Time Altitude Azimuth Distance (km) Brightness Sun altitude
Rises 00:45:06 0° 300° (WNW) 2,919 9.4 -33.5°
Reaches altitude 10° 00:47:17 10° 301° (WNW) 2,043 8.5 -33.5°
Enters shadow 00:47:29 11° 301° (WNW) 1,965 8.4 -33.5°
